Location: Famechon
(49.7599°N, 2.0615°E)
Time: 07:11:50
(UTC+00:00)

Cosmos 1745 Rocket - Pass Details

Date: 03 February 2023
Orbit: 951 x 999 km, 83.0° (Epoch: 22 March)

Event Time Altitude Azimuth Distance (km) Brightness Sun altitude
Rises 19:13:05 0° 349° (N) 3,701 7.2 -23.3°
Reaches altitude 10° 19:15:38 10° 348° (NNW) 2,742 6.5 -23.7°
Maximum altitude 19:21:53 76° 264° (W) 1,005 4.1 -24.7°
Drops below altitude 10° 19:28:02 10° 180° (S) 2,691 6.3 -25.7°
Sets 19:30:30 0° 179° (S) 3,628 6.9 -26.1°
